IRIDIUM 165 (43572 NORAD) Tracking and Keplerian Element Data

This shows tracking and keplerian element data for the satellite.

Feedback or suggestion? Click here.




ElementValue
Catalog43572
NameIRIDIUM 165
Epoch Orbit16621
Epoch Day269.68066538
Epoch Year2021
RAAN57.4268
Inclination86.3959
Eccentricity0.0002392
Argument of Perigee94.0474
Mean Anonmoly266.0995
Mean Motion14.34215482
Decay Rate8.9E-07
L11 43572U 18061D 21269.68066538 .00000089 00000-0 24865-4 0 9995
L22 43572 86.3959 57.4268 0002392 94.0474 266.0995 14.34215482166216

Live tracking and technical data element details for IRIDIUM 165 (NORAD 43572). IRIDIUM 165 can be tracked NOW for your location showing map with azimuth and elevation plus other details from your city location.

Track the satellite on the map from your city or location and see movement details for azimuth, elevation, latitude, longitude, range, height, and movement on the map or in text.







IsCatalogInMostPopularTable: catalog: 43572, numindb: 537
Update: records affected: 1



GetName: 43572 IRIDIUM 165

Hit Count: updated at: Tue, 28 Sep 2021 17:19:19 GMT